Terminal Aerodrome Forecast
Issued by NWS

Current Version | Previous Version | Graphics & Text | Print | Product List | Glossary On
Versions: 1 2 3 4 5 6 7 8 9 10 11 12 13 14 15 16 17 18 19 20 21
000
FTUS41 KRLX 221720
TAFCKB
TAF
KCKB 221720Z 2218/2318 22004KT P6SM FEW250
     FM222300 16004KT P6SM SCT250
     FM231500 14010G18KT P6SM VCSH OVC090=

USA.gov is the U.S. government's official web portal to all federal, state and local government web resources and services.